sat.trackr.live / text

‹ back to catalog

2025-155V

NORAD 64895 · 2025-155V

PAYLOAD ACTIVE UNKNOWN

§ Identity

Operator
Country
TBD
Launch date
2025-07-25
Launch site
VOSTO
Launch vehicle
Mass (kg)
RCS (m²)

External: N2YO · Heavens-Above · Gunter

§ Orbital elements

Epoch: 2026-09-21T20:57:46.134432Z

Period
94.06 min
Inclination
97.4693°
Eccentricity
0.0006907
Mean motion
15.30983581 rev/d
Perigee alt
468.1 km
Apogee alt
477.6 km
Semi-major
6,851.0 km
B*
2.3560e-4
RAAN
233.8556°
Arg perigee
176.9172°
Mean anomaly
183.2112°
Rev number
9,553

§ Raw data

2025-155V1 64895U 25155V   26264.87345063  .00006979  00000+0  23560-3 0  99952 64895  97.4693 233.8556 0006907 176.9172 183.2112 15.30983581 95532

JSON: /api/v1/satellites/64895 · /tle

For live sub-satellite position, see the globe view (requires WebGL).

§ Visibility from observer

Set your observer location to see the next 7 days of passes ≥ 10°. The values pass through the URL so the page stays shareable.

No JS? Fill the form by hand. The geolocation button needs JavaScript.

§ Radio — SatNOGS DB

ModeDescriptionDownlinkUplink
LoRa LoRa telemetry 436.725 MHz

1 transmitter · refreshed weekly from db.satnogs.org